Regional Weather Roundup
Issued by NWS

Home | Current Version | Previous Version | Graphics & Text | Print | Product List | Glossary On
Versions: 1 2 3 4 5 6 7 8 9 10 11 12 13 14 15 16 17 18 19 20 21 22 23 24 25 26 27 28 29 30 31 32 33 34 35 36 37 38 39 40 41 42 43 44 45 46 47 48 49 50
000
ASUS43 KIND 010909
RWRIN

WEATHER ROUNDUP FOR INDIANA
NATIONAL WEATHER SERVICE INDIANAPOLIS IN
500 AM EDT SAT AUG 01 2015

NOTE: "FAIR" INDICATES FEW OR NO CLOUDS BELOW 12,000 FEET WITH NO
SIGNIFICANT WEATHER AND/OR OBSTRUCTIONS TO VISIBILITY.

* - STATION DOES NOT REPORT WEATHER SUCH AS PRECIPITATION OR FOG.

+ - STATION NOT QUALITY CONTROLLED BY THE NATIONAL WEATHER SERVICE.
    USE DATA WITH CAUTION...ESPECIALLY DEWPOINT AND RELATIVE
    HUMIDITY OBSERVATIONS.

INZ001>003-010>013-019-020-011000-
NORTHWEST INDIANA

CITY           SKY/WX    TMP DP  RH WIND       PRES   REMARKS
GARY /AIRPORT/ CLEAR     66  55  68 W5        29.99R
KNOX *+        CLEAR     59  54  82 W5        29.98R
LA PORTE +     CLEAR     64  59  85 W7        29.99R
MICHIGAN CITY+ CLEAR     61  59  94 CALM      29.98S
MONTICELLO +   CLEAR     59  58  94 NW3       29.98S
RENSSELAER +   CLEAR     63  59  88 W5        30.00S
VALPARAISO     CLEAR     62  53  72 W6        29.99S

$$

LMZ046-743>745-011000-
SOUTHERN LAKE MICHIGAN

STATION/POSITION TIME  TEMP    WIND        PRES    WAVE
                       AIR SEA DIR/SP/G            HT
                 (UTC) (F)     (DEG/KT/KT) (MB)    (FT)
BURNS HARBOR     0800   74     280/  8/ 10 1015.6S
MICHIGAN CITY    0800   73     280/ 14/ 15   N/A
5NW MICH CITY    0900   74 74  320/ 12/ 16   N/A     3

$$

INZ004-005-014>016-021>024-011000-
NORTH CENTRAL INDIANA

CITY           SKY/WX    TMP DP  RH WIND       PRES   REMARKS
GOSHEN         CLEAR     61  55  81 CALM      29.97R
LOGANSPORT +   CLEAR     57  54  88 W5        29.99S
PERU/GRISSOM   CLEAR     60  56  87 W3        29.98S
ROCHESTER +    CLEAR     64  55  72 W5        29.98S
SOUTH BEND     CLEAR     60  56  86 SW5       29.98S
WARSAW +       CLEAR     61  55  82 CALM      29.97S

$$

INZ006>009-017-018-025>027-011000-
NORTHEAST INDIANA

CITY           SKY/WX    TMP DP  RH WIND       PRES   REMARKS
ANGOLA *+      CLEAR     61  55  82 CALM      29.96S
AUBURN +       CLEAR     61  54  77 CALM      29.97S
FORT WAYNE     PTCLDY    60  56  86 W7        29.97S
HUNTINGTON +   CLEAR     61  56  83 W5        29.97S

$$

INZ028-029-035-036-043>045-051>053-011000-
WEST CENTRAL INDIANA

CITY           SKY/WX    TMP DP  RH WIND       PRES   REMARKS
CRAWFORDSVL +  CLEAR     59  58  96 W5          N/A
GREENCASTLE +  CLEAR     61  55  82 CALM      30.01S
LAFAYETTE      CLEAR     59  58  96 CALM      30.00R
TERRE HAUTE    CLEAR     65  58  78 W5        30.01S

$$

INZ030>032-037>040-046>048-054>057-064-065-011000-
CENTRAL INDIANA

CITY           SKY/WX    TMP DP  RH WIND       PRES   REMARKS
FISHERS *+     CLEAR     61  61 100 CALM      29.99
FRANKFORT +    CLEAR    N/A N/A N/A CALM      30.02S
GREENWOOD *+   CLEAR     61  57  88 CALM      30.00S
INDIANAPOLIS   CLEAR     65  58  78 W6        29.98S
-EAGLE CREEK   CLEAR     68  60  75 NW6       29.99S
KOKOMO *+      CLEAR     61  54  77 W6        29.99S
MARION +       CLEAR     57  56  96 CALM      29.99S
MT COMFORT *+  CLEAR     63 N/A N/A CALM      30.00S
SHELBYVILLE    CLEAR     62  58  86 W3        29.98S
ZIONSVILLE +   CLEAR     58  56  90 CALM      30.00F

$$

INZ033-034-041-042-049-050-058-059-011000-
EAST CENTRAL INDIANA

CITY           SKY/WX    TMP DP  RH WIND       PRES   REMARKS
MUNCIE         CLEAR     60  58  92 CALM      29.98F

$$

INZ060-061-067>069-081>083-085>088-011000-
SOUTHWEST INDIANA

CITY           SKY/WX    TMP DP  RH WIND       PRES   REMARKS
EVANSVILLE     CLEAR     73  68  84 W6        30.01S
HUNTINGBURG *+ CLEAR     68  64  88 CALM      30.00S
WASHINGTON +   CLEAR     66  62  87 NW3       30.00S

$$

INZ062-063-066-070>080-084-089>092-011000-
SOUTH CENTRAL AND SOUTHEAST INDIANA

CITY           SKY/WX    TMP DP  RH WIND       PRES   REMARKS
BLOOMINGTON    CLEAR     62  60  93 CALM      30.01S
MADISON *+     CLEAR     63  61  94 CALM      30.02S
NORTH VERNON + CLEAR     64  64 100 CALM      30.00S
SEYMOUR +      CLEAR     64  59  82 CALM      30.00R

$$




USA.gov is the U.S. government's official web portal to all federal, state and local government web resources and services.